Location: Absher
(46.5583°N, 107.9840°W)
Time: 08:22:57
(UTC+00:00)

AO-73 - Visible Passes

Search period start: 01 April 2023 00:00
Search period end: 11 April 2023 00:00
Orbit: 573 x 649 km, 97.7° (Epoch: 31 March)

Date Brightness Start Highest point End Pass type
(mag) Time Alt. Az. Time Alt. Az. Time Alt. Az.
01 Apr ? 09:40:47 10° NE 09:43:03 14° E 09:44:28 12° ESE visible
01 Apr ? 11:15:19 10° N 11:19:23 55° WNW 11:21:26 26° SW visible
02 Apr ? 09:54:35 10° NE 09:57:39 20° E 09:59:12 16° ESE visible
02 Apr ? 11:29:55 10° N 11:33:47 39° WNW 11:36:11 19° SW visible
03 Apr ? 10:08:38 10° NE 10:12:12 28° E 10:13:56 21° SE visible
03 Apr ? 11:44:35 10° N 11:48:08 28° WNW 11:50:55 14° WSW visible
04 Apr ? 10:22:50 10° NNE 10:26:43 39° E 10:28:38 24° SSE visible
04 Apr ? 11:59:21 10° NNW 12:02:26 21° WNW 12:05:28 10° WSW visible
05 Apr ? 10:37:07 10° NNE 10:41:11 57° E 10:43:20 25° S visible
06 Apr ? 10:51:28 10° NNE 10:55:36 83° ESE 10:58:01 24° S visible
07 Apr ? 09:32:10 10° ENE 09:33:31 11° E 09:34:50 10° ESE visible
07 Apr ? 11:05:52 10° N 11:09:58 69° WNW 11:12:40 20° SSW visible
08 Apr ? 09:45:27 10° NE 09:48:02 16° E 09:50:20 11° SE visible
08 Apr ? 11:20:20 10° N 11:24:17 48° WNW 11:27:19 16° SW visible
09 Apr ? 09:59:16 10° NE 10:02:31 22° E 10:04:58 14° SE visible
09 Apr ? 11:34:51 10° N 11:38:34 34° WNW 11:41:56 12° SW visible
10 Apr ? 10:13:16 10° NNE 10:16:57 31° E 10:19:35 16° SSE visible
10 Apr ? 11:49:26 10° NNW 11:52:47 25° WNW 11:56:07 10° WSW visible
